This is the latest recevied weather packets stored in our database for station/object OE-11331. If no packets are shown the sender has not sent any weather packets the latest 10 day(s).
| Time | Temp. | Humidity | Pressure | Rain* | Wind** | Luminosity | Snow |
|---|---|---|---|---|---|---|---|
| 1787650531 | 16.11° C | 91% | 1014.1 hPa | 0.76 mm | - | 119 W/m² | - |
| 1787649931 | 16.11° C | 90% | 1014.1 hPa | 0.76 mm | - | 119 W/m² | - |
| 1787649103 | 16.11° C | 90% | 1014.3 hPa | 0.76 mm | - | 162 W/m² | - |
| 1787648731 | 16.11° C | 93% | 1014.4 hPa | 0.76 mm | - | 108 W/m² | - |
| 1787648131 | 15.56° C | 91% | 1014.5 hPa | 1.02 mm | - | 130 W/m² | - |
| 1787647303 | 15.56° C | 91% | 1014.5 hPa | 0.76 mm | - | 184 W/m² | - |
| 1787646931 | 15.56° C | 92% | 1014.6 hPa | 0.76 mm | - | 152 W/m² | - |
| 1787646331 | 15.56° C | 92% | 1014.5 hPa | 0.51 mm | - | 119 W/m² | - |
| 1787645503 | 15.56° C | 93% | 1014.7 hPa | 1.02 mm | - | 108 W/m² | - |
| 1787645131 | 15.56° C | 92% | 1014.6 hPa | 1.52 mm | - | 87 W/m² | - |
| 1787644531 | 15.56° C | 92% | 1014.4 hPa | 1.52 mm | - | 54 W/m² | - |
| 1787643705 | 15.56° C | 93% | 1014.5 hPa | 1.52 mm | - | 54 W/m² | - |
| 1787643332 | 15.56° C | 93% | 1014.4 hPa | 1.52 mm | - | 65 W/m² | - |
| 1787642732 | 15° C | 92% | 1014.3 hPa | 1.78 mm | - | 65 W/m² | - |
| 1787641905 | 15° C | 93% | 1014.3 hPa | 1.52 mm | - | 32 W/m² | - |
| 1787641531 | 15° C | 92% | 1014.2 hPa | 1.02 mm | - | 22 W/m² | - |
| 1787640931 | 15° C | 90% | 1014.1 hPa | 0.51 mm | - | 22 W/m² | - |
| 1787640105 | 15° C | 89% | 1013.8 hPa | 0.25 mm | - | 22 W/m² | - |
| 1787639731 | 15.56° C | 89% | 1013.9 hPa | 0.25 mm | - | 32 W/m² | - |
| 1787639132 | 15.56° C | 88% | 1013.9 hPa | 0 mm | - | 32 W/m² | - |
| 1787638304 | 15.56° C | 87% | 1014.1 hPa | 0 mm | - | 43 W/m² | - |
| 1787637932 | 15° C | 87% | 1013.9 hPa | 0 mm | - | 32 W/m² | - |
| 1787637332 | 15° C | 88% | 1014.2 hPa | 0 mm | - | 32 W/m² | - |
| 1787636504 | 15° C | 88% | 1014.2 hPa | 0 mm | - | 32 W/m² | - |
| 1787636131 | 15° C | 87% | 1014.2 hPa | 0 mm | - | 22 W/m² | - |
* Rain latest hour (hover to see other rain measurements)
** Current wind speed in m/s (hover to see current wind gust speed)